Weather reports worldwide

Advertisment
Threave, United Kingdom (99090): temperature & dewpoint: 19.05.2018 04:00:00 - 25.05.2018 04:00:00 (BST)Threave, United Kingdom (99090): temperature -20cm & temperature -100cm: 19.05.2018 04:00:00 - 25.05.2018 04:00:00 (BST)Threave, United Kingdom (99090): precipitation: 19.05.2018 04:00:00 - 25.05.2018 04:00:00 (BST)
Date & Time tt [°C] td [°C] tt -20cm [°C] tt -100cm [°C] rr [mm]
25.05.2018 04:00:00 9,1 8,5 - - 0,0
25.05.2018 03:00:00 9,4 8,8 - - 0,0
25.05.2018 02:00:00 10,0 9,4 - - 0,0
25.05.2018 01:00:00 10,4 9,2 - - 0,0
25.05.2018 00:00:00 12,4 9,9 - - 0,0
24.05.2018 23:00:00 12,2 9,1 - - 0,0
24.05.2018 22:00:00 15,1 9,4 - - 0,0
24.05.2018 21:00:00 18,3 10,4 - - 0,0
24.05.2018 20:00:00 20,8 11,4 - - 0,0
24.05.2018 19:00:00 22,4 11,5 - - 0,0
24.05.2018 18:00:00 23,0 10,6 - - 0,0
24.05.2018 17:00:00 22,8 8,5 - - 0,0
24.05.2018 16:00:00 23,0 8,7 - - 0,0
24.05.2018 15:00:00 22,3 9,4 - - 0,0
24.05.2018 14:00:00 21,9 11,0 - - 0,0
24.05.2018 13:00:00 20,2 9,6 - - 0,0
24.05.2018 12:00:00 19,0 10,2 - - 0,0
24.05.2018 11:00:00 16,9 9,6 - - 0,0
24.05.2018 10:00:00 14,9 9,2 13,7 10,7 0,0
24.05.2018 09:00:00 12,2 7,3 - - 0,0
24.05.2018 08:00:00 10,3 7,0 - - 0,0
24.05.2018 07:00:00 7,5 7,2 - - 0,0
24.05.2018 06:00:00 5,6 5,2 - - 0,0
24.05.2018 05:00:00 5,8 5,3 - - 0,0
24.05.2018 04:00:00 5,8 5,0 - - 0,0
24.05.2018 03:00:00 6,8 5,7 - - 0,0
24.05.2018 02:00:00 7,7 6,3 - - 0,0
24.05.2018 01:00:00 8,6 6,9 - - 0,0
24.05.2018 00:00:00 9,6 7,5 - - 0,0
23.05.2018 23:00:00 10,3 7,4 - - 0,0
23.05.2018 22:00:00 12,1 8,7 - - 0,0
23.05.2018 21:00:00 15,5 8,8 - - 0,0
23.05.2018 20:00:00 17,9 9,7 - - 0,0
23.05.2018 19:00:00 19,3 9,6 - - 0,0
23.05.2018 18:00:00 19,8 9,1 - - 0,0
23.05.2018 17:00:00 20,0 9,3 - - 0,0
23.05.2018 16:00:00 19,8 9,9 - - 0,0
23.05.2018 15:00:00 18,9 9,7 - - 0,0
23.05.2018 14:00:00 17,2 7,8 - - 0,0
23.05.2018 13:00:00 16,2 8,7 - - 0,0
23.05.2018 12:00:00 14,2 7,5 - - 0,0
23.05.2018 11:00:00 12,4 7,3 - - 0,0
23.05.2018 10:00:00 11,1 6,9 13,2 10,7 0,0
23.05.2018 09:00:00 10,6 7,5 - - 0,0
23.05.2018 08:00:00 9,2 7,0 - - 0,0
23.05.2018 07:00:00 8,2 6,4 - - 0,0
23.05.2018 06:00:00 7,4 6,2 - - 0,0
23.05.2018 05:00:00 7,1 6,0 - - 0,0
23.05.2018 04:00:00 7,0 5,9 - - 0,0
23.05.2018 03:00:00 7,3 5,8 - - 0,0
23.05.2018 02:00:00 8,0 6,8 - - 0,0
23.05.2018 01:00:00 7,5 6,4 - - 0,0
23.05.2018 00:00:00 7,4 6,4 - - 0,0
22.05.2018 23:00:00 8,4 6,8 - - 0,0
22.05.2018 22:00:00 9,3 7,0 - - 0,0
22.05.2018 21:00:00 11,2 7,3 - - 0,0
22.05.2018 20:00:00 13,2 7,7 - - 0,0
22.05.2018 19:00:00 15,1 8,1 - - 0,0
22.05.2018 18:00:00 16,5 8,7 - - 0,0
22.05.2018 17:00:00 17,4 9,7 - - 0,0
22.05.2018 16:00:00 16,8 9,6 - - 0,0
22.05.2018 15:00:00 16,2 9,1 - - 0,0
22.05.2018 14:00:00 16,2 9,1 - - 0,0
22.05.2018 13:00:00 14,6 8,7 - - 0,0
22.05.2018 12:00:00 13,2 8,2 - - 0,0
22.05.2018 11:00:00 12,2 8,1 - - 0,0
22.05.2018 10:00:00 11,7 7,8 12,9 10,5 0,0
22.05.2018 09:00:00 10,5 6,9 - - 0,0
22.05.2018 08:00:00 9,7 7,0 - - 0,0
22.05.2018 07:00:00 9,0 6,9 - - 0,0
22.05.2018 06:00:00 8,6 6,9 - - 0,0
22.05.2018 05:00:00 8,9 7,0 - - 0,0
22.05.2018 04:00:00 9,3 7,6 - - 0,0
22.05.2018 03:00:00 8,1 7,5 - - 0,0
22.05.2018 02:00:00 7,6 6,5 - - 0,0
22.05.2018 01:00:00 8,5 7,0 - - 0,0
22.05.2018 00:00:00 8,8 7,2 - - 0,0
21.05.2018 23:00:00 9,6 7,8 - - 0,0
21.05.2018 22:00:00 10,7 8,4 - - 0,0
21.05.2018 21:00:00 11,5 8,1 - - 0,0
21.05.2018 20:00:00 15,2 9,6 - - 0,0
21.05.2018 19:00:00 17,1 10,4 - - 0,0
21.05.2018 18:00:00 18,9 11,1 - - 0,0
21.05.2018 17:00:00 18,5 9,9 - - 0,0
21.05.2018 16:00:00 18,7 9,0 - - 0,0
21.05.2018 15:00:00 18,0 8,2 - - 0,0
21.05.2018 14:00:00 17,6 5,7 - - 0,0
21.05.2018 13:00:00 17,4 8,0 - - 0,0
21.05.2018 12:00:00 16,4 5,9 - - 0,0
21.05.2018 11:00:00 15,3 7,0 - - 0,0
21.05.2018 10:00:00 14,5 7,6 12,5 10,4 0,0
21.05.2018 09:00:00 15,2 7,0 - - 0,0
21.05.2018 08:00:00 13,8 8,1 - - 0,0
21.05.2018 07:00:00 11,6 8,1 - - 0,0
21.05.2018 06:00:00 9,2 7,5 - - 0,0
21.05.2018 05:00:00 8,7 6,8 - - 0,0
21.05.2018 04:00:00 8,6 6,4 - - 0,0
21.05.2018 03:00:00 8,9 6,4 - - 0,0
21.05.2018 02:00:00 9,0 6,6 - - 0,0
21.05.2018 01:00:00 9,1 6,5 - - 0,0
21.05.2018 00:00:00 9,6 6,3 - - 0,0
20.05.2018 23:00:00 10,0 6,8 - - 0,0
20.05.2018 22:00:00 10,8 7,0 - - 0,0
20.05.2018 21:00:00 11,6 6,8 - - 0,0
20.05.2018 20:00:00 12,3 6,8 - - 0,0
20.05.2018 19:00:00 13,0 6,7 - - 0,0
20.05.2018 18:00:00 13,9 5,9 - - 0,0
20.05.2018 17:00:00 14,7 6,2 - - 0,0
20.05.2018 16:00:00 15,3 5,8 - - 0,0
20.05.2018 15:00:00 15,1 7,3 - - 0,0
20.05.2018 14:00:00 15,3 8,6 - - 0,0
20.05.2018 13:00:00 14,4 7,8 - - 0,0
20.05.2018 12:00:00 13,8 7,6 - - 0,0
20.05.2018 11:00:00 13,4 7,8 - - 0,0
20.05.2018 10:00:00 12,6 8,3 12,7 10,4 0,0
20.05.2018 09:00:00 12,2 7,4 - - 0,0
20.05.2018 08:00:00 12,0 6,8 - - 0,0
20.05.2018 07:00:00 11,8 6,4 - - 0,0
20.05.2018 06:00:00 11,2 6,1 - - 0,0
20.05.2018 05:00:00 10,8 6,2 - - 0,0
20.05.2018 04:00:00 10,9 6,0 - - 0,0
20.05.2018 03:00:00 10,5 6,2 - - 0,0
20.05.2018 02:00:00 10,1 6,1 - - 0,0
20.05.2018 01:00:00 11,0 6,1 - - 0,0
20.05.2018 00:00:00 10,9 6,3 - - 0,0
19.05.2018 23:00:00 11,1 6,5 - - 0,0
19.05.2018 22:00:00 10,6 6,5 - - 0,0
19.05.2018 21:00:00 11,2 6,5 - - 0,0
19.05.2018 20:00:00 11,9 6,8 - - 0,0
19.05.2018 19:00:00 13,6 6,8 - - 0,0
19.05.2018 18:00:00 14,6 6,5 - - 0,0
19.05.2018 17:00:00 13,9 6,6 - - 0,0
19.05.2018 16:00:00 14,7 7,1 - - 0,0
19.05.2018 15:00:00 14,5 5,7 - - 0,0
19.05.2018 14:00:00 15,5 5,4 - - 0,0
19.05.2018 13:00:00 15,8 5,9 - - 0,0
19.05.2018 12:00:00 15,0 5,4 - - 0,0
19.05.2018 11:00:00 14,7 5,8 - - 0,0
19.05.2018 10:00:00 14,5 7,6 12,5 10,2 0,0
19.05.2018 09:00:00 11,0 9,3 - - 0,0
19.05.2018 08:00:00 6,3 6,3 - - 0,0
19.05.2018 07:00:00 4,0 3,8 - - 0,0
19.05.2018 06:00:00 2,9 2,7 - - 0,0
19.05.2018 05:00:00 2,9 2,5 - - 0,0
19.05.2018 04:00:00 3,8 3,5 - - 0,0

tt = temperature
td = dewpoint
tt -20cm = temperature -20cm
tt -100cm = temperature -100cm
rr = precipitation

Next stations